Weather reports worldwide

Advertisment
Tain Range, United Kingdom (3062): temperature & dewpoint: 19.05.2019 23:00:00 - 25.05.2019 23:00:00 (BST)Tain Range, United Kingdom (3062): temperature -20cm & temperature -100cm: 19.05.2019 23:00:00 - 25.05.2019 23:00:00 (BST)Tain Range, United Kingdom (3062): wind speed & gusts: 19.05.2019 23:00:00 - 25.05.2019 23:00:00 (BST)Tain Range, United Kingdom (3062): wind direction: 19.05.2019 23:00:00 - 25.05.2019 23:00:00 (BST)Tain Range, United Kingdom (3062): reduced air pressure: 19.05.2019 23:00:00 - 25.05.2019 23:00:00 (BST)Tain Range, United Kingdom (3062): visibility: 19.05.2019 23:00:00 - 25.05.2019 23:00:00 (BST)Tain Range, United Kingdom (3062): precipitation: 19.05.2019 23:00:00 - 25.05.2019 23:00:00 (BST)
Date & Time tt [°C] td [°C] tt -20cm [°C] tt -100cm [°C] ff [km/h] ff [kn] fx [km/h] fx [kn] dd ppp [hPa] vv [km] rr [mm]
25.05.2019 23:00:00 - - - - - - - - - - - -
25.05.2019 22:00:00 8,6 7,2 - - 11 6 - - E 1011,9 21 0,0
25.05.2019 21:00:00 8,8 7,2 - - 11 6 - - E 1012,1 22 0,0
25.05.2019 20:00:00 9,3 7,8 - - 9 5 - - E 1012,2 21 0,2
25.05.2019 19:00:00 9,7 7,8 - - 11 6 - - E 1012,4 28 0,2
25.05.2019 18:00:00 10,3 7,1 - - 9 5 - - E 1012,7 35 0,4
25.05.2019 17:00:00 10,3 7,6 - - 5 3 - - E 1013,3 29 0,2
25.05.2019 16:00:00 10,6 7,5 - - 8 4 - - E 1013,8 15 0,0
25.05.2019 15:00:00 10,8 6,7 - - 5 3 - - SSW 1014,4 30 0,0
25.05.2019 14:00:00 10,5 7,0 - - 4 2 - - SW 1014,8 19 0,4
25.05.2019 13:00:00 10,7 6,7 - - 4 2 - - NNW 1015,3 15 0,0
25.05.2019 12:00:00 10,2 5,8 - - 8 4 - - W 1015,5 23 0,0
25.05.2019 11:00:00 9,7 5,7 - - 8 4 - - SW 1016,1 18 0,2
25.05.2019 10:00:00 9,5 5,2 10,7 9,9 9 5 - - S 1016,5 19 0,0
25.05.2019 09:00:00 9,4 4,8 - - 11 6 - - WNW 1016,8 28 0,0
25.05.2019 08:00:00 8,8 4,5 - - 8 4 - - SW 1016,9 30 0,0
25.05.2019 07:00:00 8,2 4,9 - - 9 5 - - SW 1017,2 35 0,0
25.05.2019 06:00:00 5,6 3,9 - - 9 5 - - SW 1017,2 23 0,0
25.05.2019 05:00:00 4,9 3,2 - - 8 4 - - SW 1017,4 30 0,0
25.05.2019 04:00:00 4,3 2,2 - - 13 7 - - SW 1017,6 25 0,0
25.05.2019 03:00:00 7,2 3,4 - - 18 10 - - NW 1017,8 35 0,0
25.05.2019 02:00:00 6,3 4,2 - - 16 9 - - WNW 1018,1 27 0,0
25.05.2019 01:00:00 8,1 5,2 - - 15 8 - - W 1018,3 40 0,0
25.05.2019 00:00:00 8,8 5,5 - - 13 7 - - W 1018,4 35 0,0
24.05.2019 23:00:00 9,5 6,3 - - 16 9 - - W 1018,0 50 0,0
24.05.2019 22:00:00 9,9 6,2 - - 26 14 - - WNW 1017,5 50 0,0
24.05.2019 21:00:00 10,5 6,5 - - 28 15 - - WNW 1017,2 50 0,0
24.05.2019 20:00:00 10,7 6,7 - - 28 15 - - WNW 1017,0 50 0,0
24.05.2019 19:00:00 10,9 6,7 - - 29 16 - - WNW 1016,7 50 0,0
24.05.2019 18:00:00 10,9 6,0 - - 28 15 46 25 WNW 1016,7 30 0,0
24.05.2019 17:00:00 11,4 4,8 - - 35 19 - - WNW 1016,5 21 0,0
24.05.2019 16:00:00 13,4 5,9 - - 31 17 - - WNW 1016,4 28 0,0
24.05.2019 15:00:00 13,8 5,0 - - 35 19 46 25 WNW 1016,0 27 0,0
24.05.2019 14:00:00 12,8 4,3 - - 31 17 48 26 WNW 1016,2 16 0,0
24.05.2019 13:00:00 13,8 6,1 - - 31 17 46 25 WNW 1015,8 21 0,0
24.05.2019 12:00:00 12,5 5,0 - - 28 15 - - WNW 1015,6 20 0,0
24.05.2019 11:00:00 10,6 4,6 - - 26 14 50 27 W 1015,5 21 0,0
24.05.2019 10:00:00 10,1 5,1 10,7 10,0 37 20 50 27 W 1015,3 16 0,0
24.05.2019 09:00:00 9,6 4,4 - - 28 15 - - WNW 1015,6 19 0,0
24.05.2019 08:00:00 9,5 4,2 - - 35 19 48 26 WNW 1015,0 20 0,0
24.05.2019 07:00:00 9,1 4,7 - - 24 13 - - WNW 1014,5 15 0,0
24.05.2019 06:00:00 8,7 5,0 - - 22 12 - - WNW 1014,0 15 0,0
24.05.2019 05:00:00 8,9 5,4 - - 21 11 - - WNW 1013,6 21 0,0
24.05.2019 04:00:00 9,1 5,6 - - 26 14 46 25 WNW 1013,5 30 0,0
24.05.2019 03:00:00 9,3 5,9 - - 39 21 50 27 W 1012,9 30 0,0
24.05.2019 02:00:00 9,5 6,2 - - 34 18 50 27 WNW 1012,9 40 0,0
24.05.2019 01:00:00 9,5 6,7 - - 35 19 48 26 WNW 1012,5 45 0,0
24.05.2019 00:00:00 9,5 6,7 - - 34 18 48 26 W 1012,1 35 0,0
23.05.2019 23:00:00 9,6 6,6 - - 35 19 52 28 WNW 1011,7 50 0,0
23.05.2019 22:00:00 9,6 6,4 - - 34 18 - - WNW 1011,8 50 0,0
23.05.2019 21:00:00 9,3 7,0 - - 31 17 57 31 WNW 1011,7 12 0,0
23.05.2019 20:00:00 9,9 6,6 - - 39 21 61 33 W 1011,2 26 0,0
23.05.2019 19:00:00 10,4 6,7 - - 37 20 57 31 W 1011,0 50 0,0
23.05.2019 18:00:00 10,6 6,8 - - 41 22 63 34 W 1010,8 50 0,0
23.05.2019 17:00:00 10,9 7,2 - - 37 20 61 33 W 1010,5 30 0,0
23.05.2019 16:00:00 11,0 6,7 - - 46 25 67 36 WNW 1010,1 45 0,0
23.05.2019 15:00:00 11,4 6,0 - - 37 20 59 32 WNW 1010,2 50 0,0
23.05.2019 14:00:00 11,0 6,0 - - 35 19 61 33 W 1010,3 50 0,0
23.05.2019 13:00:00 10,9 5,6 - - 41 22 54 29 WNW 1010,1 50 0,0
23.05.2019 12:00:00 10,7 5,9 - - 28 15 50 27 W 1010,4 45 0,0
23.05.2019 11:00:00 10,2 5,9 - - 31 17 - - W 1010,5 50 0,0
23.05.2019 10:00:00 9,6 6,0 11,2 10,0 31 17 - - W 1010,7 50 0,0
23.05.2019 09:00:00 9,3 6,2 - - 29 16 - - WNW 1010,8 50 0,0
23.05.2019 08:00:00 9,0 6,9 - - 28 15 - - W 1011,0 30 0,0
23.05.2019 07:00:00 8,7 7,5 - - 26 14 - - WNW 1010,9 4,8 0,2
23.05.2019 06:00:00 9,7 7,7 - - 26 14 - - WNW 1010,7 50 0,0
23.05.2019 05:00:00 9,5 8,0 - - 28 15 46 25 WNW 1010,7 50 0,2
23.05.2019 04:00:00 10,0 7,7 - - 29 16 46 25 WNW 1011,0 50 0,0
23.05.2019 03:00:00 10,0 7,8 - - 31 17 46 25 WNW 1011,3 50 0,0
23.05.2019 02:00:00 9,9 7,9 - - 31 17 46 25 WNW 1011,6 50 0,0
23.05.2019 01:00:00 10,0 7,8 - - 24 13 - - W 1012,2 35 0,0
23.05.2019 00:00:00 10,0 7,9 - - 22 12 - - WNW 1012,6 50 0,0
22.05.2019 23:00:00 9,9 7,5 - - 22 12 - - WNW 1013,0 50 0,0
22.05.2019 22:00:00 10,1 8,2 - - 29 16 - - WNW 1013,0 30 0,0
22.05.2019 21:00:00 10,4 7,9 - - 31 17 - - WNW 1012,9 50 0,0
22.05.2019 20:00:00 10,7 7,8 - - 31 17 - - WNW 1013,1 50 0,0
22.05.2019 19:00:00 11,3 7,6 - - 35 19 - - WNW 1013,5 35 0,0
22.05.2019 18:00:00 11,7 8,2 - - 34 18 - - WNW 1013,6 30 0,0
22.05.2019 17:00:00 11,8 8,5 - - 26 14 - - WNW 1013,9 40 0,0
22.05.2019 16:00:00 11,6 8,5 - - 26 14 - - WNW 1014,1 50 0,0
22.05.2019 15:00:00 11,8 8,9 - - 24 13 - - WNW 1014,2 50 0,0
22.05.2019 14:00:00 12,7 9,9 - - 28 15 - - WNW 1014,2 45 0,0
22.05.2019 13:00:00 12,2 9,6 - - 31 17 46 25 WNW 1014,4 45 0,0
22.05.2019 12:00:00 12,7 10,2 - - 29 16 - - WNW 1014,4 45 0,0
22.05.2019 11:00:00 10,9 9,3 - - 26 14 - - WNW 1014,8 6 0,0
22.05.2019 10:00:00 10,7 9,2 11,4 10,0 21 11 - - WNW 1014,9 45 0,0
22.05.2019 09:00:00 10,7 8,9 - - 18 10 - - WNW 1014,9 29 0,0
22.05.2019 08:00:00 10,4 8,9 - - 22 12 - - WNW 1014,9 40 0,0
22.05.2019 07:00:00 9,6 8,5 - - 18 10 - - WNW 1015,0 50 0,0
22.05.2019 06:00:00 8,7 7,3 - - 11 6 - - W 1015,2 50 0,0
22.05.2019 05:00:00 8,2 7,0 - - 16 9 - - SW 1015,5 50 1,0
22.05.2019 04:00:00 8,1 6,6 - - 18 10 - - SW 1016,0 50 0,0
22.05.2019 03:00:00 7,9 6,5 - - 16 9 - - SW 1016,3 45 1,8
22.05.2019 02:00:00 8,9 5,5 - - 16 9 - - W 1016,9 13 0,2
22.05.2019 01:00:00 8,8 4,9 - - 18 10 - - W 1017,4 45 0,0
22.05.2019 00:00:00 8,8 5,1 - - 15 8 - - W 1017,7 50 0,0
21.05.2019 23:00:00 8,2 5,0 - - 16 9 - - W 1018,0 50 0,0
21.05.2019 22:00:00 9,2 5,0 - - 26 14 - - WNW 1018,1 40 0,0
21.05.2019 21:00:00 10,4 5,1 - - 26 14 - - WNW 1018,0 50 0,0
21.05.2019 20:00:00 11,9 4,9 - - 28 15 - - NW 1018,0 45 0,0
21.05.2019 19:00:00 13,0 4,4 - - 29 16 46 25 WNW 1017,7 45 0,0
21.05.2019 18:00:00 13,9 4,8 - - 28 15 - - NW 1017,7 35 0,0
21.05.2019 17:00:00 14,9 6,9 - - 28 15 - - NW 1017,6 50 0,0
21.05.2019 16:00:00 13,6 5,0 - - 26 14 - - NW 1017,8 50 0,0
21.05.2019 15:00:00 15,1 6,3 - - 26 14 - - WNW 1017,8 30 0,0
21.05.2019 14:00:00 13,7 6,6 - - 28 15 - - WNW 1017,9 45 0,0
21.05.2019 13:00:00 13,6 6,1 - - 28 15 - - WNW 1017,8 50 0,0
21.05.2019 12:00:00 13,2 7,5 - - 18 10 - - NW 1018,0 40 0,0
21.05.2019 11:00:00 11,8 7,5 - - 21 11 - - NW 1018,2 45 0,0
21.05.2019 10:00:00 11,1 7,6 11,5 9,9 16 9 - - WNW 1018,2 40 0,0
21.05.2019 09:00:00 10,1 7,3 - - 21 11 - - WNW 1017,9 50 0,0
21.05.2019 08:00:00 9,4 7,6 - - 21 11 - - WNW 1017,6 35 0,2
21.05.2019 07:00:00 9,1 8,0 - - 13 7 - - WNW 1017,5 40 0,8
21.05.2019 06:00:00 9,0 7,6 - - 15 8 - - W 1017,4 27 0,4
21.05.2019 05:00:00 8,6 7,5 - - 11 6 - - WSW 1017,1 28 1,0
21.05.2019 04:00:00 8,8 7,8 - - 15 8 - - WNW 1016,8 12 0,4
21.05.2019 03:00:00 9,0 7,7 - - 15 8 - - WNW 1016,9 23 0,2
21.05.2019 02:00:00 9,0 7,4 - - 16 9 - - WNW 1016,7 26 0,2
21.05.2019 01:00:00 9,3 7,5 - - 16 9 - - NW 1016,7 27 0,2
21.05.2019 00:00:00 10,3 7,7 - - 21 11 - - NW 1016,4 50 0,0
20.05.2019 23:00:00 10,7 7,9 - - 21 11 - - NW 1016,0 50 0,0
20.05.2019 22:00:00 11,5 8,4 - - 16 9 - - NW 1015,8 50 0,0
20.05.2019 21:00:00 11,8 10,3 - - 4 2 - - N 1015,4 50 0,0
20.05.2019 20:00:00 12,2 9,9 - - 9 5 - - N 1015,1 23 0,0
20.05.2019 19:00:00 12,6 10,5 - - 11 6 - - NE 1014,7 30 0,0
20.05.2019 18:00:00 13,3 10,9 - - 8 4 - - NE 1014,3 50 0,0
20.05.2019 17:00:00 13,1 10,7 - - 8 4 - - NE 1013,9 50 0,0
20.05.2019 16:00:00 14,5 10,4 - - 13 7 - - NNE 1013,6 50 0,0
20.05.2019 15:00:00 14,5 10,3 - - 11 6 - - N 1013,3 45 0,0
20.05.2019 14:00:00 14,5 9,7 - - 9 5 - - NNW 1013,2 45 0,0
20.05.2019 13:00:00 14,8 10,8 - - 11 6 - - NNW 1013,0 50 0,0
20.05.2019 12:00:00 13,6 10,6 - - 15 8 - - WNW 1013,0 35 0,4
20.05.2019 11:00:00 12,7 10,0 - - 13 7 - - WNW 1013,0 45 0,0
20.05.2019 10:00:00 12,0 10,3 11,2 9,7 15 8 - - NW 1012,8 50 0,0
20.05.2019 09:00:00 11,1 10,0 - - 13 7 - - WNW 1012,7 9 0,2
20.05.2019 08:00:00 11,1 9,9 - - 13 7 - - W 1012,2 18 0,4
20.05.2019 07:00:00 10,9 10,0 - - 13 7 - - WNW 1011,8 30 0,0
20.05.2019 06:00:00 10,7 9,8 - - 13 7 - - WNW 1011,5 50 0,0
20.05.2019 05:00:00 10,7 9,7 - - 11 6 - - WNW 1011,3 45 0,2
20.05.2019 04:00:00 10,6 9,8 - - 8 4 - - WNW 1011,2 50 0,4
20.05.2019 03:00:00 10,8 10,0 - - 5 3 - - WNW 1011,3 35 0,2
20.05.2019 02:00:00 11,0 9,8 - - 11 6 - - WNW 1011,2 45 0,4
20.05.2019 01:00:00 11,2 9,6 - - 8 4 - - WNW 1011,2 50 0,0
20.05.2019 00:00:00 11,4 10,1 - - 13 7 - - WNW 1011,1 50 0,0
19.05.2019 23:00:00 11,4 10,4 - - 13 7 - - WNW 1011,1 45 0,0

tt = temperature
td = dewpoint
tt -20cm = temperature -20cm
tt -100cm = temperature -100cm
ff = wind speed
fx = gusts
dd = wind direction
ppp = reduced air pressure
vv = visibility
rr = precipitation

Next stations